[[{"header":{"parameterUnit":"m.s-1","parameterCategory":2,"la1":30.2991,"la2":30.254,"lo1":-89.0895,"lo2":-89.0444,"dy":0.0017,"dx":0.0017,"nx":28,"ny":28,"refTime":"2025-01-11T03:00:00:Z","depth":"0","parameterNumber":2,"parameterNumberName":"U-component_of_CURRENTS"},"data":[0,0,0,0,0,0,0,0,0,0,0,0,0,0,0,0,0,0,0,0,0,0,0,0,0,0,0,0,0,0,0,0,0,0,0,0,0,0,0,0,0,0,0,0,0,0,0,0,0,0,0,0,0,0,0,0,0,0,-0.3629,-0.363,0,-0.3676,-0.3676,-0.3677,-0.3632,-0.3631,-0.3629,-0.3628,-0.3578,-0.3578,-0.3578,0,0,0,0,0,0,0,0,0,0,0,0,0,-0.3497,-0.35,-0.3629,-0.363,-0.3631,-0.3676,-0.3676,-0.3677,-0.3632,-0.3631,-0.3629,-0.3627,-0.3578,-0.3578,-0.3578,0,0,0,0,0,0,0,0,0,0,0,0,0,-0.3547,-0.35,-0.3629,-0.3617,-0.3617,-0.3676,-0.3676,-0.3677,-0.3633,-0.3631,-0.3628,-0.3626,-0.3578,-0.3578,-0.3578,-0.3621,0,0,-0.3578,-0.3578,0,0,0,0,0,0,0,0,-0.3544,-0.3551,-0.3618,-0.3618,-0.3618,-0.3649,-0.3612,-0.3655,-0.3633,-0.3623,-0.3628,-0.3625,-0.3597,-0.3595,-0.3605,-0.3619,-0.3617,-0.3578,-0.3578,-0.3578,-0.3578,0,0,0,0,0,0,0,-0.3541,-0.3549,-0.3644,-0.3619,-0.3619,-0.3609,-0.3613,-0.362,-0.3616,-0.3623,-0.3621,-0.3633,-0.3595,-0.3605,-0.3603,-0.3616,-0.3578,-0.3578,-0.3578,-0.3578,-0.3643,-0.3645,0,0,0,0,0,0,-0.3546,-0.3546,-0.3642,-0.3646,-0.3579,-0.3613,-0.3618,-0.3638,-0.3618,-0.3615,-0.3635,-0.3631,-0.3606,-0.3603,-0.3601,-0.3639,-0.3578,-0.3578,-0.3578,-0.3641,-0.3644,-0.3645,0,0,0,0,0,0,-0.3543,-0.3554,-0.364,-0.3599,-0.361,-0.3618,-0.3641,-0.364,-0.3641,-0.3629,-0.3623,-0.3635,-0.3604,-0.3601,-0.3612,-0.3636,-0.3578,-0.3578,-0.3639,-0.3642,-0.3645,-0.3721,0,0,0,0,0,0,-0.3539,-0.3553,-0.3563,-0.36,-0.3612,-0.368,-0.3644,-0.3643,-0.3654,-0.3649,-0.3628,-0.3621,-0.3602,-0.3612,-0.3612,-0.3635,-0.3578,-0.3637,-0.3641,-0.3644,-0.3716,-0.3726,-0.3734,0,0,0,0,0,-0.3534,-0.356,-0.3564,-0.3575,-0.3628,-0.3682,-0.3688,-0.3683,-0.3656,-0.3671,-0.3655,-0.3621,-0.3632,-0.3614,-0.3613,-0.3637,-0.3636,-0.364,-0.3643,-0.3712,-0.3724,-0.3734,0,0,0,0,0,0,-0.3501,-0.356,-0.3564,-0.3603,-0.3642,-0.3676,-0.3687,-0.3688,-0.3689,-0.3675,-0.3648,-0.3643,-0.3661,-0.3645,-0.3626,-0.3666,-0.3627,-0.3631,-0.368,-0.3691,-0.3699,-0.3698,-0.3578,0,0,0,0,0,-0.3504,-0.3536,-0.3592,-0.3619,-0.3641,-0.3664,-0.3681,-0.3687,-0.37,-0.3697,-0.3686,-0.3676,-0.3682,-0.368,-0.3683,-0.371,-0.3685,-0.3724,-0.3733,-0.374,-0.374,-0.3739,-0.3748,-0.3658,-0.3658,-0.3658,0,0,-0.3495,-0.3533,-0.3547,-0.3614,-0.3636,-0.3686,-0.3667,-0.3703,-0.3736,-0.3693,-0.3717,-0.3708,-0.3697,-0.3726,-0.3732,-0.371,-0.3754,-0.3745,-0.3751,-0.3747,-0.3744,-0.3753,-0.376,-0.3661,-0.366,-0.366,0,0,-0.3504,-0.3532,-0.3566,-0.3611,-0.3666,-0.3694,-0.3707,-0.375,-0.3757,-0.3795,-0.3769,-0.3779,-0.3786,-0.379,-0.379,-0.3853,-0.3802,-0.3849,-0.3891,-0.3891,-0.3898,-0.3904,-0.3884,-0.3888,-0.3852,-0.3852,-0.3852,0,-0.3487,-0.3543,-0.3583,-0.3636,-0.3671,-0.37,-0.3748,-0.3779,-0.3817,-0.3831,-0.3808,-0.3833,-0.3821,-0.3858,-0.3875,-0.3872,-0.3852,-0.385,-0.3902,-0.3907,-0.3911,-0.389,-0.3893,-0.3856,-0.3855,-0.3855,-0.3855,0,-0.3528,-0.3577,-0.3602,-0.368,-0.3727,-0.3772,-0.3834,-0.3869,-0.3876,-0.39,-0.3934,-0.3929,-0.3935,-0.3943,-0.3925,-0.396,-0.3928,-0.3913,-0.3871,-0.3925,-0.3899,-0.39,-0.3862,-0.386,-0.3859,-0.3858,0,0,-0.3472,-0.3605,-0.361,-0.3653,-0.3753,-0.3792,-0.3867,-0.3936,-0.3966,-0.3998,-0.4029,-0.4053,-0.4035,-0.4035,-0.4019,-0.4023,-0.4039,-0.3981,-0.3979,-0.3955,-0.4021,-0.395,-0.3944,-0.4027,-0.4028,-0.4029,-0.3989,0,-0.3483,-0.3581,-0.3651,-0.3733,-0.3787,-0.3858,-0.3924,-0.399,-0.4026,-0.4065,-0.4077,-0.4095,-0.4076,-0.4069,-0.4078,-0.4045,-0.4046,-0.4049,-0.3977,-0.3975,-0.39,-0.3945,-0.382,-0.377,-0.399,-0.3991,-0.3991,0,-0.349,-0.3558,-0.3644,-0.3766,-0.3794,-0.3848,-0.3942,-0.4003,-0.4082,-0.411,-0.4142,-0.4144,-0.4164,-0.413,-0.4116,-0.4114,-0.4073,-0.4048,-0.4046,-0.3951,-0.3906,-0.3753,-0.3764,-0.3748,-0.3992,-0.3992,-0.3992,0,-0.3413,-0.3546,-0.3607,-0.365,-0.3796,-0.3836,-0.3899,-0.3998,-0.4049,-0.4118,-0.415,-0.4182,-0.4181,-0.4158,-0.4116,-0.4109,-0.4085,-0.4067,-0.3969,-0.3963,-0.3827,-0.3808,-0.3807,-0.4054,-0.4054,-0.4054,-0.4055,0,-0.3392,-0.3435,-0.3572,-0.3603,-0.3663,-0.3782,-0.3846,-0.3917,-0.4021,-0.4071,-0.4142,-0.4173,-0.4186,-0.418,-0.4132,-0.4054,-0.4097,-0.3978,-0.3953,-0.3851,-0.3834,-0.379,-0.3805,-0.4053,-0.4053,-0.4054,-0.4054,0,-0.3289,-0.3389,-0.3455,-0.3592,-0.3627,-0.3656,-0.3796,-0.3846,-0.3962,-0.4026,-0.4047,-0.4158,-0.415,-0.4154,-0.4114,-0.4061,-0.3931,-0.3959,-0.3831,-0.3792,-0.3669,-0.3693,-0.3614,-0.3509,-0.3836,-0.3835,-0.3833,0,-0.3246,-0.3271,-0.3395,-0.3422,-0.3475,-0.3552,-0.3608,-0.3769,-0.3832,-0.4001,-0.4015,-0.4076,-0.4085,-0.403,-0.3961,-0.3876,-0.3848,-0.3707,-0.3675,-0.365,-0.3658,-0.365,-0.3566,-0.3525,-0.3521,-0.3518,-0.3515,0,-0.3135,-0.3175,-0.3222,-0.3279,-0.3332,-0.3403,-0.3497,-0.3554,-0.3739,-0.3813,-0.3893,-0.3921,-0.3934,-0.3827,-0.3761,-0.3676,-0.3617,-0.3635,-0.3643,-0.3445,-0.34,-0.3289,-0.3564,-0.3486,-0.3489,-0.3491,-0.3492,-0.3494,-0.3017,-0.3014,-0.3071,-0.3104,-0.3165,-0.3208,-0.3203,-0.3345,-0.3415,-0.3507,-0.3667,-0.3695,-0.3704,-0.3597,-0.3525,-0.338,-0.3407,-0.3281,-0.3319,-0.3319,-0.3196,-0.3403,-0.328,-0.3281,-0.3283,-0.3284,-0.3285,0,-0.2856,-0.287,-0.2896,-0.2928,-0.2913,-0.3008,-0.3085,-0.306,-0.3073,-0.3252,-0.3306,-0.3423,-0.333,-0.3347,-0.3249,-0.312,-0.302,-0.304,-0.3011,-0.2941,-0.3146,-0.3112,-0.2904,-0.2904,-0.2904,-0.2904,-0.2904,-0.2904,-0.2773,-0.2726,-0.2741,-0.265,-0.2668,-0.2581,-0.2575,-0.2576,-0.2653,-0.2741,-0.2897,-0.3095,-0.314,-0.3332,-0.3175,-0.3019,-0.2919,-0.2829,-0.284,-0.3027,-0.3054,-0.3079,-0.3051,-0.2833,-0.2833,-0.2529,-0.2527,-0.2526]},{"header":{"parameterUnit":"m.s-1","parameterCategory":2,"la1":30.2991,"la2":30.254,"lo1":-89.0895,"lo2":-89.0444,"dy":0.0017,"dx":0.0017,"nx":28,"ny":28,"refTime":"2025-01-11T03:00:00:Z","depth":"0","parameterNumber":3,"parameterNumberName":"V-component_of_CURRENTS"},"data":[0,0,0,0,0,0,0,0,0,0,0,0,0,0,0,0,0,0,0,0,0,0,0,0,0,0,0,0,0,0,0,0,0,0,0,0,0,0,0,0,0,0,0,0,0,0,0,0,0,0,0,0,0,0,0,0,0,0,-0.0319,-0.0318,0,-0.018,-0.0179,-0.0177,-0.0083,-0.0082,-0.0082,-0.0082,0.0093,0.0097,0.0101,0,0,0,0,0,0,0,0,0,0,0,0,0,-0.0421,-0.042,-0.0319,-0.0318,-0.0316,-0.0181,-0.0179,-0.0176,-0.0083,-0.0082,-0.0082,-0.0081,0.0091,0.0096,0.0102,0,0,0,0,0,0,0,0,0,0,0,0,0,-0.0336,-0.0419,-0.032,-0.0255,-0.0248,-0.0181,-0.0178,-0.0176,-0.0083,-0.0082,-0.0082,-0.0081,0.009,0.0096,0.0102,0.0129,0,0,0.0122,0.0125,0,0,0,0,0,0,0,0,-0.0341,-0.0332,-0.0266,-0.026,-0.0252,-0.0151,-0.015,-0.0073,-0.0083,-0.0143,-0.0082,-0.0081,0.0012,0.0025,0.0053,0.0138,0.0145,0.0122,0.0126,0.0129,0.0131,0,0,0,0,0,0,0,-0.0347,-0.0337,-0.0261,-0.0265,-0.0256,-0.0205,-0.0193,-0.0135,-0.0068,-0.0138,-0.0131,-0.012,0.0017,0.0047,0.0058,0.0148,0.0122,0.0128,0.0132,0.0134,0.0287,0.0288,0,0,0,0,0,0,-0.0375,-0.0343,-0.0266,-0.0258,-0.0299,-0.0205,-0.0191,-0.0182,-0.0069,-0.0052,-0.0121,-0.0117,0.0036,0.0051,0.0065,0.0108,0.0129,0.0135,0.0139,0.0287,0.0288,0.0288,0,0,0,0,0,0,-0.0378,-0.037,-0.0271,-0.0299,-0.0284,-0.0205,-0.0194,-0.0179,-0.015,-0.0057,-0.0039,-0.0108,0.0037,0.0056,0.0116,0.0116,0.0138,0.0144,0.0287,0.0287,0.0288,0.0193,0,0,0,0,0,0,-0.0381,-0.0371,-0.0377,-0.0301,-0.0283,-0.0245,-0.0195,-0.0177,-0.0146,-0.0138,-0.004,-0.0023,0.0039,0.0106,0.0122,0.0125,0.0149,0.0287,0.0287,0.0288,0.0195,0.019,0.0185,0,0,0,0,0,-0.0385,-0.0402,-0.0378,-0.0369,-0.0293,-0.0246,-0.0232,-0.0171,-0.0146,-0.0141,-0.0069,-0.0026,0.0121,0.0111,0.013,0.0135,0.0286,0.0287,0.0288,0.0198,0.0191,0.0185,0,0,0,0,0,0,-0.0449,-0.0391,-0.0364,-0.0362,-0.0313,-0.0231,-0.0224,-0.0181,-0.012,-0.0113,-0.0023,-0.0001,0.0051,0.0106,0.0093,0.0181,0.0211,0.0215,0.0136,0.013,0.0125,0.0099,0.0154,0,0,0,0,0,-0.0468,-0.0464,-0.0396,-0.0396,-0.0377,-0.0302,-0.0277,-0.0235,-0.0171,-0.0144,-0.0073,0.0003,0.0069,0.0107,0.0171,0.0217,0.0277,0.0234,0.0229,0.0224,0.0216,0.0311,0.0313,0.029,0.029,0.029,0,0,-0.0493,-0.0462,-0.0459,-0.0409,-0.0367,-0.035,-0.0285,-0.0256,-0.0234,-0.0135,-0.0088,-0.0018,0.0076,0.013,0.0159,0.0176,0.0261,0.0224,0.0219,0.0215,0.0312,0.0314,0.0316,0.029,0.029,0.029,0,0,-0.0549,-0.0514,-0.0531,-0.0496,-0.0445,-0.0394,-0.0392,-0.0315,-0.0273,-0.0221,-0.0142,-0.0071,0.0023,0.0098,0.0147,0.0151,0.0225,0.0168,0.0126,0.0217,0.022,0.0223,0.0291,0.0301,0.017,0.0169,0.0169,0,-0.0584,-0.0591,-0.0529,-0.0533,-0.0513,-0.0422,-0.0431,-0.0373,-0.0284,-0.0248,-0.0223,-0.0063,0.0011,0.0098,0.0098,0.0139,0.0192,0.0138,0.0209,0.0213,0.0218,0.0287,0.0299,0.0165,0.0165,0.0166,0.0166,0,-0.0646,-0.0649,-0.0657,-0.0629,-0.0597,-0.0591,-0.0507,-0.0465,-0.0405,-0.0337,-0.0247,-0.0136,-0.0038,-0.0003,0.0048,0.012,0.0147,0.0185,0.0218,0.0214,0.0288,0.0302,0.0158,0.016,0.0161,0.0163,0,0,-0.0726,-0.0708,-0.0709,-0.0717,-0.0649,-0.0633,-0.0589,-0.052,-0.0486,-0.0387,-0.0331,-0.0208,-0.0139,-0.0079,0.0008,0.0085,0.0162,0.0135,0.0142,0.019,0.0347,0.0416,0.0439,0.021,0.0212,0.0214,0.0381,0,-0.0793,-0.0841,-0.0796,-0.0823,-0.0838,-0.0741,-0.0707,-0.0627,-0.0538,-0.0457,-0.0319,-0.0237,-0.0167,-0.0119,-0.003,0.012,0.0196,0.0112,0.0356,0.0363,0.0415,0.0458,0.0512,0.0671,0.0396,0.0398,0.04,0,-0.0864,-0.0887,-0.0939,-0.0925,-0.092,-0.0912,-0.0835,-0.079,-0.0644,-0.0572,-0.0452,-0.0336,-0.0193,-0.0141,0.0107,0.0048,0.0179,0.029,0.0301,0.0408,0.0459,0.0636,0.0708,0.0952,0.0423,0.0421,0.0419,0,-0.096,-0.098,-0.103,-0.1026,-0.0992,-0.0986,-0.0952,-0.0832,-0.0792,-0.0639,-0.0585,-0.0393,-0.0288,-0.0099,0.0143,0.0125,0.0415,0.0428,0.0612,0.0618,0.0736,0.0748,0.1065,0.059,0.059,0.059,0.0589,0,-0.105,-0.1085,-0.1086,-0.1116,-0.1159,-0.1089,-0.1087,-0.1015,-0.0905,-0.0852,-0.0658,-0.0561,-0.0273,-0.0063,0.0134,0.0432,0.042,0.0616,0.0677,0.0703,0.0711,0.0986,0.1058,0.0596,0.0595,0.0593,0.0592,0,-0.1144,-0.1144,-0.1207,-0.1209,-0.1213,-0.1241,-0.1204,-0.1192,-0.1067,-0.0987,-0.0942,-0.0675,-0.0385,-0.0088,0.0249,0.043,0.0849,0.0797,0.0799,0.0857,0.1236,0.1298,0.164,0.1762,0.1021,0.1024,0.1026,0,-0.1198,-0.1243,-0.1297,-0.1343,-0.1352,-0.1375,-0.1387,-0.1291,-0.1265,-0.1048,-0.1019,-0.0714,-0.0472,0.0061,0.0445,0.0833,0.0995,0.1091,0.1072,0.1288,0.1402,0.1442,0.1522,0.1188,0.1191,0.1194,0.1196,0,-0.1296,-0.1314,-0.1366,-0.1474,-0.1521,-0.1557,-0.156,-0.1566,-0.1423,-0.1314,-0.1107,-0.0889,-0.033,0.0173,0.0697,0.0928,0.127,0.1161,0.1409,0.1584,0.1627,0.1763,0.1025,0.1222,0.122,0.1218,0.1216,0.1215,-0.1356,-0.1424,-0.1501,-0.1595,-0.1659,-0.1717,-0.1742,-0.17,-0.1636,-0.1432,-0.1206,-0.0828,-0.0067,0.0701,0.0979,0.1592,0.1506,0.1761,0.1823,0.1848,0.1966,0.127,0.1519,0.1518,0.1517,0.1517,0.1516,0,-0.1428,-0.1506,-0.1614,-0.1722,-0.1815,-0.181,-0.1836,-0.1817,-0.1737,-0.1475,-0.1219,-0.0387,0.0359,0.1046,0.1919,0.2243,0.2295,0.2399,0.2486,0.2538,0.1969,0.1978,0.231,0.2309,0.2309,0.2309,0.2308,0.2308,-0.1468,-0.159,-0.1653,-0.1826,-0.1899,-0.197,-0.1981,-0.1914,-0.1744,-0.1306,-0.0833,-0.0443,0.0585,0.2013,0.2826,0.2892,0.3131,0.3107,0.3232,0.2858,0.2803,0.2751,0.2783,0.3278,0.3279,0.3792,0.3797,0.3801]}],[{"header":{"parameterUnit":"m.s-1","parameterCategory":2,"la1":30.2991,"la2":30.254,"lo1":-89.0895,"lo2":-89.0444,"dy":0.0017,"dx":0.0017,"nx":28,"ny":28,"refTime":"2025-01-11T03:00:00:Z","depth":"2","parameterNumber":2,"parameterNumberName":"U-component_of_CURRENTS"},"data":[0,0,0,0,0,0,0,0,0,0,0,0,0,0,0,0,0,0,0,0,0,0,0,0,0,0,0,0,0,0,0,0,0,0,0,0,0,0,0,0,0,0,0,0,0,0,0,0,0,0,0,0,0,0,0,0,0,0,-0.3422,-0.3423,0,-0.3468,-0.3468,-0.3468,-0.3432,-0.3431,-0.343,-0.3428,-0.3388,-0.3388,-0.3388,0,0,0,0,0,0,0,0,0,0,0,0,0,-0.3299,-0.3301,-0.3422,-0.3423,-0.3424,-0.3468,-0.3468,-0.3468,-0.3432,-0.3431,-0.3429,-0.3428,-0.3388,-0.3388,-0.3388,0,0,0,0,0,0,0,0,0,0,0,0,0,-0.3346,-0.3302,-0.3422,-0.3414,-0.3414,-0.3468,-0.3468,-0.3468,-0.3432,-0.3431,-0.3429,-0.3427,-0.3388,-0.3388,-0.3388,-0.3424,0,0,-0.3388,-0.3388,0,0,0,0,0,0,0,0,-0.3343,-0.335,-0.3414,-0.3415,-0.3415,-0.3446,-0.341,-0.3451,-0.3433,-0.3421,-0.3428,-0.3426,-0.3403,-0.3402,-0.341,-0.3422,-0.342,-0.3388,-0.3388,-0.3388,-0.3388,0,0,0,0,0,0,0,-0.334,-0.3348,-0.3436,-0.3416,-0.3416,-0.3407,-0.3411,-0.3417,-0.3417,-0.3422,-0.3421,-0.3433,-0.3402,-0.341,-0.3409,-0.342,-0.3388,-0.3388,-0.3388,-0.3388,-0.3453,-0.3455,0,0,0,0,0,0,-0.3345,-0.3345,-0.3435,-0.3438,-0.3378,-0.3411,-0.3415,-0.3434,-0.3419,-0.3417,-0.3434,-0.3431,-0.3411,-0.3409,-0.3407,-0.3448,-0.3388,-0.3388,-0.3388,-0.3451,-0.3453,-0.3455,0,0,0,0,0,0,-0.3342,-0.3353,-0.3433,-0.3395,-0.3405,-0.3415,-0.3437,-0.3436,-0.344,-0.343,-0.3424,-0.3438,-0.3409,-0.3407,-0.342,-0.3446,-0.3388,-0.3388,-0.3449,-0.3452,-0.3454,-0.3531,0,0,0,0,0,0,-0.3339,-0.3352,-0.3362,-0.3396,-0.3407,-0.3472,-0.3439,-0.3439,-0.3453,-0.3448,-0.3432,-0.3426,-0.3408,-0.3421,-0.342,-0.3445,-0.3388,-0.3447,-0.3451,-0.3454,-0.3526,-0.3536,-0.3544,0,0,0,0,0,-0.3334,-0.3359,-0.3363,-0.3374,-0.3424,-0.3474,-0.3479,-0.3477,-0.3455,-0.347,-0.3458,-0.3426,-0.344,-0.3423,-0.3422,-0.3447,-0.3446,-0.345,-0.3453,-0.3523,-0.3534,-0.3544,0,0,0,0,0,0,-0.3305,-0.336,-0.3364,-0.3401,-0.3439,-0.3469,-0.3482,-0.3484,-0.3488,-0.3477,-0.3452,-0.3448,-0.3469,-0.3453,-0.3434,-0.3476,-0.3437,-0.3441,-0.349,-0.3501,-0.3509,-0.3509,-0.3388,0,0,0,0,0,-0.3309,-0.3339,-0.339,-0.3417,-0.3439,-0.3461,-0.3477,-0.3485,-0.3498,-0.3498,-0.349,-0.3482,-0.3488,-0.3488,-0.3491,-0.3518,-0.3495,-0.3533,-0.3542,-0.355,-0.355,-0.355,-0.3558,-0.3468,-0.3468,-0.3468,0,0,-0.3302,-0.3337,-0.3351,-0.3413,-0.3435,-0.3482,-0.3465,-0.3502,-0.3534,-0.3494,-0.3521,-0.3514,-0.3503,-0.3532,-0.354,-0.3519,-0.3565,-0.3555,-0.3561,-0.3557,-0.3555,-0.3563,-0.3571,-0.347,-0.347,-0.347,0,0,-0.3313,-0.334,-0.3372,-0.3415,-0.3468,-0.3493,-0.3507,-0.355,-0.3559,-0.3597,-0.3574,-0.3585,-0.3595,-0.3597,-0.3597,-0.3659,-0.3612,-0.3657,-0.3701,-0.3701,-0.3708,-0.3714,-0.3697,-0.3701,-0.366,-0.3661,-0.3661,0,-0.33,-0.3352,-0.3388,-0.3439,-0.3473,-0.3501,-0.3548,-0.3578,-0.3616,-0.3631,-0.3612,-0.3639,-0.3628,-0.3664,-0.3682,-0.3679,-0.3661,-0.366,-0.3712,-0.3717,-0.3721,-0.3703,-0.3706,-0.3665,-0.3664,-0.3664,-0.3663,0,-0.334,-0.3386,-0.3411,-0.3483,-0.3529,-0.3573,-0.3631,-0.3667,-0.3678,-0.3701,-0.3738,-0.3734,-0.3742,-0.375,-0.3733,-0.3769,-0.374,-0.3723,-0.3682,-0.3735,-0.3712,-0.3714,-0.3671,-0.3669,-0.3668,-0.3667,0,0,-0.329,-0.3414,-0.3419,-0.3461,-0.3555,-0.3592,-0.3665,-0.3732,-0.3764,-0.3798,-0.383,-0.3855,-0.3842,-0.3841,-0.3827,-0.3832,-0.3851,-0.3792,-0.379,-0.377,-0.3837,-0.3765,-0.3759,-0.3839,-0.3839,-0.384,-0.3807,0,-0.3303,-0.3395,-0.346,-0.3539,-0.3589,-0.3657,-0.3722,-0.3786,-0.3823,-0.3864,-0.3877,-0.3898,-0.3881,-0.3878,-0.3888,-0.3857,-0.3859,-0.386,-0.3792,-0.379,-0.3715,-0.376,-0.3459,-0.34,-0.3809,-0.3809,-0.3809,0,-0.3311,-0.3374,-0.3456,-0.357,-0.3598,-0.365,-0.3742,-0.3802,-0.3881,-0.391,-0.3945,-0.3949,-0.3972,-0.3939,-0.3929,-0.3928,-0.3889,-0.3865,-0.3863,-0.3767,-0.3721,-0.3413,-0.3388,-0.3812,-0.3811,-0.3811,-0.3811,0,-0.324,-0.3365,-0.3424,-0.3464,-0.3601,-0.3643,-0.3704,-0.3801,-0.3851,-0.3923,-0.3956,-0.399,-0.3993,-0.3972,-0.3935,-0.3927,-0.3907,-0.3886,-0.379,-0.3783,-0.3499,-0.3466,-0.3876,-0.3876,-0.3876,-0.3876,-0.3876,0,-0.3221,-0.3262,-0.3392,-0.3422,-0.3481,-0.3594,-0.3659,-0.3729,-0.3831,-0.388,-0.3952,-0.3983,-0.4,-0.3996,-0.3951,-0.3877,-0.392,-0.3801,-0.3775,-0.3518,-0.349,-0.3822,-0.3817,-0.3875,-0.3875,-0.3875,-0.3875,0,-0.3126,-0.322,-0.3283,-0.3414,-0.3448,-0.3478,-0.3614,-0.3662,-0.3778,-0.3841,-0.3864,-0.3971,-0.3968,-0.3974,-0.3939,-0.3885,-0.3827,-0.3787,-0.3484,-0.3424,-0.3696,-0.3695,-0.3671,-0.3669,-0.3666,-0.3664,-0.3663,0,-0.3085,-0.311,-0.3228,-0.3254,-0.3305,-0.3382,-0.3435,-0.3591,-0.3651,-0.3817,-0.3829,-0.3893,-0.3897,-0.3848,-0.3754,-0.3668,-0.3763,-0.3355,-0.3295,-0.37,-0.3677,-0.368,-0.3682,-0.294,-0.2933,-0.2927,-0.2922,0,-0.2981,-0.302,-0.3065,-0.3118,-0.3171,-0.3236,-0.3327,-0.3379,-0.3558,-0.3627,-0.3702,-0.3726,-0.3717,-0.3506,-0.3434,-0.3336,-0.3349,-0.3231,-0.371,-0.3061,-0.3014,-0.2992,-0.3016,-0.2868,-0.2873,-0.2877,-0.288,-0.2882,-0.2869,-0.2866,-0.2919,-0.2951,-0.3009,-0.3046,-0.3039,-0.3161,-0.3221,-0.3267,-0.3436,-0.3364,-0.3352,-0.3084,-0.295,-0.2838,-0.306,-0.29,-0.2916,-0.294,-0.2884,-0.2837,-0.2646,-0.265,-0.2653,-0.2657,-0.2659,0,-0.2711,-0.2728,-0.2751,-0.2779,-0.2757,-0.2856,-0.2922,-0.2864,-0.2852,-0.2943,-0.2958,-0.267,-0.2568,-0.2569,-0.2329,-0.2305,-0.2252,-0.2197,-0.2113,-0.2168,-0.2216,-0.2122,-0.1683,-0.168,-0.1678,-0.1675,0,0,-0.2631,-0.2581,-0.2592,-0.2498,-0.2518,-0.2418,-0.2407,-0.2345,-0.2342,-0.2237,-0.2202,-0.2394,-0.2482,-0.2069,-0.1984,-0.1802,-0.1956,-0.1706,-0.2484,-0.2437,-0.2482,-0.2614,-0.2531,0,0,0,0,0]},{"header":{"parameterUnit":"m.s-1","parameterCategory":2,"la1":30.2991,"la2":30.254,"lo1":-89.0895,"lo2":-89.0444,"dy":0.0017,"dx":0.0017,"nx":28,"ny":28,"refTime":"2025-01-11T03:00:00:Z","depth":"2","parameterNumber":3,"parameterNumberName":"V-component_of_CURRENTS"},"data":[0,0,0,0,0,0,0,0,0,0,0,0,0,0,0,0,0,0,0,0,0,0,0,0,0,0,0,0,0,0,0,0,0,0,0,0,0,0,0,0,0,0,0,0,0,0,0,0,0,0,0,0,0,0,0,0,0,0,-0.0304,-0.0303,0,-0.0172,-0.017,-0.0168,-0.0078,-0.0078,-0.0078,-0.0077,0.009,0.0094,0.0098,0,0,0,0,0,0,0,0,0,0,0,0,0,-0.04,-0.0399,-0.0304,-0.0303,-0.0302,-0.0172,-0.017,-0.0168,-0.0078,-0.0078,-0.0077,-0.0077,0.0089,0.0094,0.0098,0,0,0,0,0,0,0,0,0,0,0,0,0,-0.032,-0.0399,-0.0305,-0.0243,-0.0237,-0.0172,-0.017,-0.0167,-0.0079,-0.0078,-0.0077,-0.0077,0.0087,0.0093,0.0099,0.0125,0,0,0.0118,0.012,0,0,0,0,0,0,0,0,-0.0325,-0.0316,-0.0254,-0.0247,-0.024,-0.0143,-0.0142,-0.0069,-0.0079,-0.0136,-0.0077,-0.0077,0.0013,0.0025,0.0052,0.0133,0.014,0.0118,0.0122,0.0125,0.0126,0,0,0,0,0,0,0,-0.033,-0.0321,-0.0249,-0.0252,-0.0244,-0.0195,-0.0184,-0.0128,-0.0064,-0.0131,-0.0125,-0.0114,0.0017,0.0046,0.0057,0.0143,0.0118,0.0124,0.0127,0.013,0.0278,0.0278,0,0,0,0,0,0,-0.0357,-0.0327,-0.0253,-0.0245,-0.0285,-0.0195,-0.0181,-0.0173,-0.0065,-0.0049,-0.0115,-0.0111,0.0035,0.005,0.0063,0.0106,0.0125,0.013,0.0134,0.0278,0.0278,0.0278,0,0,0,0,0,0,-0.036,-0.0352,-0.0259,-0.0285,-0.027,-0.0195,-0.0185,-0.0171,-0.0143,-0.0054,-0.0036,-0.0103,0.0036,0.0055,0.0112,0.0113,0.0133,0.0139,0.0277,0.0278,0.0278,0.0188,0,0,0,0,0,0,-0.0363,-0.0354,-0.0359,-0.0287,-0.027,-0.0233,-0.0185,-0.0168,-0.0139,-0.0132,-0.0038,-0.0021,0.0038,0.0103,0.0118,0.0122,0.0144,0.0277,0.0277,0.0278,0.019,0.0185,0.018,0,0,0,0,0,-0.0367,-0.0383,-0.036,-0.0352,-0.0279,-0.0234,-0.0221,-0.0162,-0.0139,-0.0134,-0.0065,-0.0024,0.0117,0.0108,0.0126,0.0131,0.0277,0.0277,0.0278,0.0193,0.0186,0.0181,0,0,0,0,0,0,-0.0429,-0.0373,-0.0347,-0.0345,-0.0299,-0.022,-0.0213,-0.0172,-0.0113,-0.0107,-0.0021,0.0,0.0051,0.0103,0.0091,0.0176,0.0204,0.0208,0.0133,0.0127,0.0122,0.0097,0.0149,0,0,0,0,0,-0.0447,-0.0443,-0.0378,-0.0378,-0.036,-0.0288,-0.0264,-0.0224,-0.0163,-0.0136,-0.0069,0.0004,0.0068,0.0105,0.0166,0.0211,0.0268,0.0228,0.0223,0.0218,0.021,0.0302,0.0304,0.028,0.028,0.028,0,0,-0.0471,-0.0441,-0.0438,-0.0391,-0.035,-0.0334,-0.0272,-0.0245,-0.0223,-0.0128,-0.0083,-0.0015,0.0075,0.0128,0.0155,0.0172,0.0254,0.0219,0.0214,0.0209,0.0303,0.0305,0.0307,0.028,0.028,0.028,0,0,-0.0525,-0.0492,-0.0508,-0.0475,-0.0426,-0.0376,-0.0375,-0.0301,-0.026,-0.021,-0.0134,-0.0066,0.0025,0.0098,0.0145,0.0149,0.022,0.0166,0.0126,0.0214,0.0217,0.022,0.0285,0.0295,0.0168,0.0167,0.0167,0,-0.056,-0.0566,-0.0506,-0.051,-0.0491,-0.0404,-0.0412,-0.0356,-0.0271,-0.0236,-0.0212,-0.0057,0.0014,0.0098,0.0099,0.0138,0.0189,0.0137,0.0206,0.0211,0.0215,0.0282,0.0294,0.0163,0.0164,0.0164,0.0164,0,-0.0619,-0.0622,-0.063,-0.0602,-0.0572,-0.0567,-0.0485,-0.0445,-0.0387,-0.0322,-0.0235,-0.0127,-0.0033,0.0002,0.0051,0.0121,0.0147,0.0183,0.0215,0.0212,0.0283,0.0296,0.0157,0.0159,0.016,0.0161,0,0,-0.0697,-0.0679,-0.068,-0.0689,-0.0623,-0.0607,-0.0564,-0.0498,-0.0467,-0.037,-0.0315,-0.0196,-0.0129,-0.0071,0.0013,0.0089,0.0163,0.0136,0.0143,0.0189,0.0342,0.0403,0.0425,0.021,0.0212,0.0214,0.0374,0,-0.0762,-0.0808,-0.0764,-0.0791,-0.0806,-0.0712,-0.068,-0.0603,-0.0517,-0.0439,-0.0304,-0.0225,-0.0156,-0.011,-0.0022,0.0122,0.0196,0.0115,0.0349,0.0356,0.0402,0.0443,0.0359,0.0499,0.0388,0.0391,0.0392,0,-0.0831,-0.0854,-0.0904,-0.0891,-0.0886,-0.0879,-0.0806,-0.0763,-0.0622,-0.0553,-0.0435,-0.0322,-0.0183,-0.0131,0.0109,0.0052,0.0179,0.0287,0.0297,0.0395,0.0444,0.049,0.053,0.0416,0.0414,0.0413,0.0411,0,-0.0926,-0.0945,-0.0994,-0.099,-0.0958,-0.0953,-0.0921,-0.0805,-0.0767,-0.0619,-0.0567,-0.038,-0.0278,-0.0093,0.0141,0.0125,0.0404,0.0419,0.0593,0.0598,0.0595,0.0597,0.0578,0.0577,0.0577,0.0577,0.0576,0,-0.1013,-0.1049,-0.1049,-0.1078,-0.1122,-0.1054,-0.1055,-0.0986,-0.0879,-0.083,-0.064,-0.0548,-0.0265,-0.0062,0.0131,0.0417,0.0408,0.0596,0.0655,0.0562,0.0559,0.054,0.0533,0.0583,0.0581,0.058,0.0579,0,-0.1106,-0.1106,-0.1168,-0.1171,-0.1175,-0.1205,-0.117,-0.116,-0.104,-0.0964,-0.0922,-0.0663,-0.0383,-0.0093,0.0235,0.0411,0.067,0.0767,0.0632,0.0672,0.0798,0.0785,0.0972,0.0976,0.0979,0.0982,0.0984,0,-0.1159,-0.1204,-0.1257,-0.1303,-0.1313,-0.1337,-0.135,-0.1258,-0.1234,-0.1028,-0.1,-0.0708,-0.0476,0.0039,0.0392,0.0765,0.0765,0.09,0.0866,0.0806,0.0844,0.0826,0.0809,0.0818,0.0819,0.0819,0.082,0,-0.1256,-0.1274,-0.1326,-0.1433,-0.148,-0.1517,-0.1522,-0.1529,-0.1392,-0.1289,-0.1094,-0.0886,-0.0367,0.0047,0.0547,0.0749,0.0838,0.0926,0.0925,0.0734,0.0676,0.0708,0.0693,0.0825,0.0824,0.0824,0.0824,0.0823,-0.1316,-0.1384,-0.1459,-0.1552,-0.1617,-0.1675,-0.1701,-0.166,-0.1601,-0.1407,-0.12,-0.0856,-0.0423,0.0275,0.0623,0.0942,0.0947,0.1009,0.1001,0.0994,0.095,0.0902,0.1083,0.1084,0.1085,0.1086,0.1087,0,-0.1387,-0.1465,-0.1572,-0.1679,-0.1768,-0.1767,-0.1795,-0.1765,-0.1688,-0.1459,-0.1221,-0.0747,-0.0254,0.0195,0.0701,0.1021,0.0973,0.1061,0.0923,0.0916,0.0911,0.0858,0.097,0.0971,0.0971,0.0972,0,0,-0.1426,-0.1545,-0.1606,-0.1775,-0.1851,-0.1916,-0.1929,-0.1843,-0.1687,-0.1445,-0.1185,-0.0817,-0.0262,0.0068,0.0467,0.0728,0.0733,0.0746,0.0804,0.0586,0.0577,0.0848,0.0757,0,0,0,0,0]}],[{"header":{"parameterUnit":"m.s-1","parameterCategory":2,"la1":30.2991,"la2":30.254,"lo1":-89.0895,"lo2":-89.0444,"dy":0.0017,"dx":0.0017,"nx":28,"ny":28,"refTime":"2025-01-11T03:00:00:Z","depth":"4","parameterNumber":2,"parameterNumberName":"U-component_of_CURRENTS"},"data":[0,0,0,0,0,0,0,0,0,0,0,0,0,0,0,0,0,0,0,0,0,0,0,0,0,0,0,0,0,0,0,0,0,0,0,0,0,0,0,0,0,0,0,0,0,0,0,0,0,0,0,0,0,0,0,0,0,0,-0.2281,-0.2282,0,-0.2377,-0.2378,-0.2379,-0.2432,-0.2433,-0.2433,-0.2434,-0.2509,-0.251,-0.2512,0,0,0,0,0,0,0,0,0,0,0,0,0,-0.2138,-0.214,-0.228,-0.2282,-0.2283,-0.2377,-0.2378,-0.2379,-0.2432,-0.2433,-0.2433,-0.2434,-0.2508,-0.251,-0.2512,0,0,0,0,0,0,0,0,0,0,0,0,0,-0.2211,-0.2141,-0.228,-0.2323,-0.2328,-0.2377,-0.2378,-0.238,-0.2432,-0.2433,-0.2433,-0.2434,-0.2507,-0.251,-0.2512,-0.2515,0,0,-0.252,-0.2521,0,0,0,0,0,0,0,0,-0.2207,-0.2216,-0.2315,-0.232,-0.2326,-0.2396,-0.2356,-0.2425,-0.2432,-0.239,-0.2434,-0.2434,-0.247,-0.2476,-0.2489,-0.2519,-0.2522,-0.252,-0.2521,-0.2522,-0.2523,0,0,0,0,0,0,0,-0.2202,-0.2212,-0.2316,-0.2317,-0.2324,-0.2337,-0.2347,-0.2369,-0.2423,-0.2394,-0.2398,-0.2413,-0.2473,-0.2487,-0.2491,-0.2523,-0.252,-0.2522,-0.2523,-0.2524,-0.2661,-0.2663,0,0,0,0,0,0,-0.2195,-0.2207,-0.2313,-0.2319,-0.227,-0.2339,-0.2351,-0.2371,-0.2423,-0.2433,-0.2413,-0.2416,-0.2482,-0.2488,-0.2494,-0.2601,-0.2522,-0.2525,-0.2526,-0.2659,-0.2662,-0.2664,0,0,0,0,0,0,-0.2192,-0.2204,-0.2309,-0.2267,-0.2282,-0.2341,-0.2363,-0.2372,-0.2426,-0.2439,-0.2447,-0.2461,-0.2483,-0.2491,-0.2554,-0.26,-0.2526,-0.2528,-0.2656,-0.266,-0.2663,-0.275,0,0,0,0,0,0,-0.2187,-0.2202,-0.2232,-0.2267,-0.2284,-0.2367,-0.2363,-0.2374,-0.2433,-0.2438,-0.2482,-0.2487,-0.2484,-0.2551,-0.2557,-0.2602,-0.253,-0.2654,-0.2658,-0.2662,-0.2744,-0.2755,-0.2765,0,0,0,0,0,-0.2182,-0.2215,-0.2233,-0.2247,-0.2318,-0.2369,-0.238,-0.242,-0.2435,-0.2469,-0.2502,-0.2488,-0.258,-0.2555,-0.2561,-0.2608,-0.2652,-0.2657,-0.2661,-0.2739,-0.2753,-0.2765,0,0,0,0,0,0,-0.217,-0.2225,-0.2245,-0.2295,-0.2343,-0.238,-0.242,-0.2444,-0.2497,-0.2514,-0.2519,-0.2527,-0.2598,-0.2593,-0.2565,-0.2659,-0.2613,-0.2619,-0.267,-0.2683,-0.2693,-0.2687,-0.2532,0,0,0,0,0,-0.218,-0.2222,-0.2272,-0.2316,-0.2344,-0.2389,-0.2422,-0.2454,-0.2496,-0.2522,-0.2555,-0.2587,-0.2616,-0.2643,-0.2667,-0.2723,-0.2699,-0.2757,-0.2767,-0.2776,-0.2776,-0.278,-0.2791,-0.268,-0.268,-0.268,0,0,-0.2188,-0.2225,-0.225,-0.2317,-0.2357,-0.2409,-0.2412,-0.2478,-0.2529,-0.252,-0.2611,-0.2629,-0.2639,-0.2702,-0.2733,-0.271,-0.2798,-0.2782,-0.279,-0.2785,-0.2786,-0.2797,-0.2806,-0.2683,-0.2683,-0.2682,0,0,-0.2211,-0.2259,-0.23,-0.2347,-0.2421,-0.2451,-0.2479,-0.2546,-0.2589,-0.2668,-0.2672,-0.2721,-0.2779,-0.2793,-0.2804,-0.2888,-0.2852,-0.2903,-0.2957,-0.2961,-0.297,-0.2977,-0.2965,-0.297,-0.291,-0.291,-0.2911,0,-0.2221,-0.2276,-0.2321,-0.2374,-0.2421,-0.2474,-0.253,-0.2581,-0.2664,-0.2702,-0.2712,-0.2802,-0.2817,-0.2874,-0.2907,-0.2912,-0.2901,-0.2906,-0.2974,-0.298,-0.2986,-0.2972,-0.2976,-0.2915,-0.2915,-0.2914,-0.2914,0,-0.2261,-0.2326,-0.2357,-0.244,-0.2497,-0.2557,-0.2629,-0.2699,-0.2756,-0.2797,-0.2886,-0.2911,-0.2957,-0.2977,-0.2971,-0.3029,-0.3004,-0.2983,-0.2937,-0.3002,-0.2983,-0.2987,-0.2922,-0.292,-0.2919,-0.2918,0,0,-0.2224,-0.2359,-0.2374,-0.2427,-0.254,-0.2584,-0.2686,-0.2775,-0.2836,-0.2919,-0.2986,-0.3052,-0.3066,-0.3078,-0.3082,-0.3095,-0.3133,-0.3067,-0.3065,-0.3047,-0.3137,-0.2938,-0.2922,-0.3126,-0.3127,-0.3128,-0.3108,0,-0.2243,-0.2344,-0.2414,-0.252,-0.2575,-0.2667,-0.2751,-0.2844,-0.2918,-0.2997,-0.304,-0.3104,-0.3103,-0.3132,-0.315,-0.3135,-0.3146,-0.314,-0.3083,-0.3081,-0.2889,-0.2921,-0.3132,-0.311,-0.3111,-0.3111,-0.3112,0,-0.2247,-0.2318,-0.2424,-0.256,-0.2595,-0.2673,-0.2806,-0.2887,-0.3004,-0.3063,-0.3135,-0.3166,-0.3219,-0.3198,-0.3214,-0.3212,-0.3187,-0.3167,-0.3166,-0.2947,-0.2887,-0.3031,-0.3117,-0.3116,-0.3116,-0.3116,-0.3115,0,-0.217,-0.232,-0.2405,-0.2454,-0.2615,-0.269,-0.2777,-0.2909,-0.2977,-0.3101,-0.3152,-0.322,-0.3253,-0.3248,-0.3227,-0.3228,-0.3214,-0.3201,-0.2999,-0.2985,-0.3132,-0.3125,-0.3201,-0.3202,-0.3202,-0.3202,-0.3202,0,-0.2135,-0.2206,-0.2384,-0.2426,-0.2527,-0.266,-0.2771,-0.2866,-0.2998,-0.3056,-0.3173,-0.32,-0.3269,-0.3271,-0.3242,-0.3117,-0.3225,-0.3,-0.2962,-0.3171,-0.3168,-0.3134,-0.3127,-0.3201,-0.3201,-0.3201,-0.3201,0,-0.2027,-0.2151,-0.225,-0.2433,-0.2493,-0.2562,-0.2749,-0.2811,-0.2963,-0.3038,-0.3079,-0.3195,-0.3189,-0.3221,-0.3203,-0.3104,-0.3024,-0.2956,-0.3175,-0.3152,-0.2792,-0.279,-0.2719,-0.2711,-0.2705,-0.27,-0.2696,0,-0.1975,-0.202,-0.2216,-0.2272,-0.2362,-0.2494,-0.2571,-0.2759,-0.2814,-0.2993,-0.299,-0.3068,-0.3113,-0.2919,-0.2984,-0.2907,-0.2875,-0.2822,-0.2807,-0.277,-0.2742,-0.2749,-0.2755,-0.2686,-0.2684,-0.2683,-0.2681,0,-0.1858,-0.1949,-0.2026,-0.2137,-0.2236,-0.2333,-0.2457,-0.2477,-0.2669,-0.2842,-0.2815,-0.2805,-0.2793,-0.2766,-0.2729,-0.2677,-0.2847,-0.2757,-0.2769,-0.2755,-0.273,-0.2709,-0.2722,-0.266,-0.2663,-0.2665,-0.2666,0,-0.1763,-0.1783,-0.1891,-0.1966,-0.2079,-0.2113,-0.2219,-0.2276,-0.2355,-0.2562,-0.254,-0.2627,-0.2749,-0.2644,-0.2606,-0.2542,-0.2504,-0.2418,-0.2448,-0.2472,-0.2401,-0.2333,-0.2097,0,0,0,0,0,-0.1651,-0.1649,-0.1708,-0.1778,-0.1879,-0.1939,-0.2104,-0.2217,-0.2406,-0.2313,-0.2423,-0.2399,-0.2356,-0.2402,-0.228,-0.2495,-0.2515,-0.2344,-0.2432,-0.2541,-0.2566,-0.2505,0,0,0,0,0,0,-0.1577,-0.1619,-0.1635,-0.1588,-0.1598,-0.1684,-0.1777,-0.1923,-0.1889,-0.2092,-0.207,-0.2234,-0.2217,-0.2368,-0.2218,-0.2234,-0.2236,-0.2419,-0.2412,-0.2527,-0.255,-0.257,-0.2515,0,0,0,0,0]},{"header":{"parameterUnit":"m.s-1","parameterCategory":2,"la1":30.2991,"la2":30.254,"lo1":-89.0895,"lo2":-89.0444,"dy":0.0017,"dx":0.0017,"nx":28,"ny":28,"refTime":"2025-01-11T03:00:00:Z","depth":"4","parameterNumber":3,"parameterNumberName":"V-component_of_CURRENTS"},"data":[0,0,0,0,0,0,0,0,0,0,0,0,0,0,0,0,0,0,0,0,0,0,0,0,0,0,0,0,0,0,0,0,0,0,0,0,0,0,0,0,0,0,0,0,0,0,0,0,0,0,0,0,0,0,0,0,0,0,-0.0219,-0.0218,0,-0.0135,-0.0133,-0.0132,-0.0072,-0.0072,-0.0072,-0.0072,0.0052,0.0055,0.0058,0,0,0,0,0,0,0,0,0,0,0,0,0,-0.0269,-0.0269,-0.0219,-0.0218,-0.0218,-0.0135,-0.0133,-0.0132,-0.0072,-0.0072,-0.0072,-0.0071,0.0051,0.0055,0.0059,0,0,0,0,0,0,0,0,0,0,0,0,0,-0.022,-0.0269,-0.0219,-0.018,-0.0175,-0.0135,-0.0133,-0.0132,-0.0072,-0.0072,-0.0072,-0.0071,0.005,0.0055,0.0059,0.008,0,0,0.0073,0.0075,0,0,0,0,0,0,0,0,-0.0223,-0.0218,-0.0186,-0.0182,-0.0178,-0.0116,-0.0106,-0.006,-0.0073,-0.0109,-0.0072,-0.0071,-0.0002,0.0007,0.0025,0.0086,0.0091,0.0074,0.0077,0.0078,0.008,0,0,0,0,0,0,0,-0.0227,-0.0221,-0.0183,-0.0186,-0.018,-0.0146,-0.0139,-0.0096,-0.0056,-0.0106,-0.0102,-0.0096,0.0001,0.002,0.0028,0.0093,0.0074,0.0078,0.0081,0.0082,0.0198,0.0198,0,0,0,0,0,0,-0.0246,-0.0225,-0.0186,-0.0181,-0.0203,-0.0146,-0.0137,-0.0134,-0.0057,-0.0046,-0.0097,-0.0094,0.0012,0.0023,0.0033,0.0067,0.0078,0.0083,0.0085,0.0198,0.0198,0.0198,0,0,0,0,0,0,-0.0247,-0.0243,-0.0189,-0.0203,-0.0194,-0.0146,-0.0142,-0.0133,-0.0116,-0.0051,-0.0039,-0.009,0.0013,0.0026,0.0069,0.0072,0.0085,0.0089,0.0197,0.0198,0.0198,0.0131,0,0,0,0,0,0,-0.0249,-0.0244,-0.0252,-0.0204,-0.0194,-0.0175,-0.0142,-0.0131,-0.0114,-0.0109,-0.0042,-0.0029,0.0014,0.0062,0.0074,0.0078,0.0093,0.0197,0.0198,0.0198,0.0133,0.0129,0.0126,0,0,0,0,0,-0.0251,-0.0265,-0.0253,-0.0248,-0.0205,-0.0176,-0.0167,-0.0129,-0.0114,-0.0112,-0.0062,-0.0032,0.0075,0.0066,0.008,0.0085,0.0197,0.0197,0.0198,0.0135,0.013,0.0126,0,0,0,0,0,0,-0.0292,-0.0259,-0.0244,-0.0248,-0.0219,-0.0167,-0.0165,-0.0137,-0.0096,-0.0093,-0.0029,-0.0013,0.0025,0.0065,0.0054,0.0122,0.0141,0.0145,0.0089,0.0085,0.0082,0.006,0.0096,0,0,0,0,0,-0.0306,-0.0308,-0.0267,-0.0272,-0.0261,-0.0214,-0.02,-0.0174,-0.0131,-0.0113,-0.0064,-0.001,0.004,0.0067,0.0113,0.0149,0.0193,0.0164,0.016,0.0157,0.015,0.0224,0.0226,0.0201,0.0201,0.0201,0,0,-0.0324,-0.0307,-0.0309,-0.0281,-0.0256,-0.0247,-0.0204,-0.0189,-0.0176,-0.0106,-0.0076,-0.0023,0.0045,0.0086,0.0108,0.0119,0.0186,0.0158,0.0154,0.0149,0.0225,0.0227,0.0229,0.0201,0.0201,0.0201,0,0,-0.0364,-0.0346,-0.0361,-0.0341,-0.0312,-0.028,-0.028,-0.0231,-0.0204,-0.0169,-0.0112,-0.0059,0.0009,0.0066,0.0102,0.0108,0.0162,0.0122,0.0092,0.0163,0.0166,0.0169,0.0218,0.0226,0.0124,0.0124,0.0124,0,-0.0389,-0.04,-0.0361,-0.0367,-0.036,-0.03,-0.0311,-0.0272,-0.0214,-0.0191,-0.0172,-0.0055,0.0001,0.0067,0.007,0.01,0.014,0.0099,0.0158,0.0162,0.0166,0.0216,0.0226,0.0121,0.0121,0.0121,0.0122,0,-0.0432,-0.0443,-0.045,-0.0438,-0.0421,-0.0422,-0.0368,-0.0342,-0.0303,-0.0258,-0.0193,-0.0107,-0.0037,-0.0006,0.0034,0.0092,0.011,0.014,0.0163,0.0164,0.0217,0.0228,0.0116,0.0117,0.0118,0.0119,0,0,-0.0483,-0.0485,-0.0488,-0.0503,-0.0462,-0.0457,-0.043,-0.0389,-0.0372,-0.0298,-0.0263,-0.0164,-0.0113,-0.0068,0.0002,0.0067,0.0129,0.0106,0.0111,0.0145,0.0272,0.025,0.026,0.0169,0.017,0.0172,0.0294,0,-0.0531,-0.0575,-0.0551,-0.0584,-0.06,-0.0542,-0.0524,-0.0474,-0.0415,-0.0363,-0.0255,-0.0197,-0.0135,-0.0101,-0.0024,0.0095,0.0156,0.0092,0.0275,0.028,0.0252,0.0271,0.0177,0.0303,0.0305,0.0307,0.0309,0,-0.0578,-0.0603,-0.0654,-0.0666,-0.0667,-0.0674,-0.0638,-0.0612,-0.0513,-0.0463,-0.0373,-0.0285,-0.0169,-0.0123,0.0078,0.0033,0.0137,0.0229,0.0237,0.0245,0.0278,0.0308,0.0329,0.0328,0.0326,0.0325,0.0323,0,-0.0638,-0.0672,-0.0724,-0.0727,-0.0725,-0.0736,-0.0726,-0.0651,-0.0632,-0.0525,-0.0491,-0.0338,-0.0262,-0.0101,0.0091,0.0086,0.0307,0.0329,0.0408,0.0408,0.0419,0.0416,0.046,0.046,0.0459,0.0459,0.0459,0,-0.0691,-0.0733,-0.0766,-0.0795,-0.0853,-0.0816,-0.0841,-0.0798,-0.0732,-0.0705,-0.0556,-0.0491,-0.0254,-0.0093,0.0077,0.0275,0.0303,0.0402,0.0441,0.0387,0.0379,0.0427,0.0422,0.0464,0.0463,0.0462,0.0461,0,-0.074,-0.0762,-0.0832,-0.0869,-0.0889,-0.0928,-0.0942,-0.0945,-0.0869,-0.0824,-0.0793,-0.0602,-0.0387,-0.0148,0.0124,0.0243,0.0445,0.0506,0.0419,0.0452,0.0497,0.0487,0.0599,0.0599,0.0599,0.06,0.06,0,-0.0766,-0.0809,-0.0901,-0.0957,-0.0985,-0.1036,-0.1066,-0.1023,-0.1014,-0.0885,-0.0865,-0.0659,-0.0504,-0.0135,0.0107,0.0429,0.0469,0.0557,0.0534,0.0486,0.0514,0.0503,0.0493,0.06,0.06,0.06,0.06,0,-0.0814,-0.0856,-0.0913,-0.1035,-0.1105,-0.1164,-0.1199,-0.1204,-0.1125,-0.1066,-0.0903,-0.0686,-0.0446,-0.0149,0.0103,0.0332,0.0495,0.0561,0.0561,0.0541,0.0489,0.0514,0.0504,0.0601,0.0601,0.0601,0.0601,0,-0.0845,-0.0904,-0.0994,-0.1091,-0.1191,-0.1254,-0.1267,-0.1233,-0.1206,-0.1051,-0.1002,-0.0709,-0.0536,-0.02,0.0035,0.0259,0.0306,0.0358,0.037,0.0372,0.0269,0.0168,0.0216,0,0,0,0,0,-0.0863,-0.0934,-0.104,-0.1147,-0.1246,-0.1295,-0.1334,-0.1321,-0.1252,-0.115,-0.1067,-0.0829,-0.0451,-0.0283,-0.0064,0.0018,0.0324,0.0277,0.0384,0.0606,0.0605,0.0521,0,0,0,0,0,0,-0.0878,-0.0981,-0.1039,-0.1167,-0.1243,-0.1336,-0.1362,-0.132,-0.1246,-0.1146,-0.0944,-0.0801,-0.0437,-0.0572,-0.0065,0.0004,0.0094,0.0467,0.0471,0.0607,0.0606,0.0605,0.0519,0,0,0,0,0]}]]